Surface/Precipitation History
04/25/2015 14:57  to  4/26/2015 14:57
Change End Date:
Date/Time
(MDT)
Sf
Temp Chem Water Layer Surface Precipitation
Sf Sub Frz Factor Pct Depth IcePct Cond Salin Type Intens Accum Rate
04/26/2015 14:46 Dry 75.2F 55F - - - - - 0 mhos 0 None None - -
04/26/2015 14:37 Dry 70.9F 55F - - - - - 0 mhos 0 Yes - - -
04/26/2015 14:31 Dry 65.8F 55F - - - - - 0 mhos 1 None None - -
04/26/2015 14:27 Dry 66.2F 55F - - - - - 0 mhos 1 None None - -
04/26/2015 14:17 Wet 63.3F 55F 32F 5 0% 0.00 in 0% 0 mhos 11 None None - -
04/26/2015 14:16 Wet 63.3F 55F 32F 5 0% 0.00 in 0% 0 mhos 11 None None - -
04/26/2015 14:07 Wet 60.8F 55F 32F 5 0% 0.00 in 0% 0 mhos 16 Yes - - -
04/26/2015 14:01 Wet 59.9F 55F 32F 5 0% 0.00 in 0% 0 mhos 25 Yes - - -
04/26/2015 13:57 Wet 59.4F 55F 32F 5 0% 0.00 in 0% 0 mhos 25 Yes - - -
04/26/2015 13:47 Wet 59.2F 55F 32F 5 0% 0.00 in 0% 0 mhos 19 Yes - - -
04/26/2015 13:46 Wet 59.0F 55F 32F 5 0% 0.00 in 0% 0 mhos 19 Yes - - -
04/26/2015 13:37 Wet 58.6F 55F 32F 5 0% 0.00 in 0% 0 mhos 19 Yes - - -
04/26/2015 13:31 Wet 58.6F 55F 32F 5 0% 0.00 in 0% 0 mhos 21 Yes - - -
04/26/2015 13:27 Wet 58.8F 55F 32F 5 0% 0.00 in 0% 0 mhos 22 Yes - - -
04/26/2015 13:17 Wet 56.5F 55F 32F 5 0% 0.00 in 0% 0 mhos 19 Yes - - -
Date/Time
(MDT)
Sf
Temp Chem Water Layer Surface Precipitation
Sf Sub Frz Factor Pct Depth IcePct Cond Salin Type Intens Accum Rate
04/26/2015 13:16 Wet 56.1F 55F 32F 5 0% 0.00 in 0% 0 mhos 17 Yes - - -
04/26/2015 13:07 Wet 55.0F 56F 32F 5 0% 0.00 in 0% 0 mhos 14 Yes - - -
04/26/2015 13:01 Wet 55.6F 56F 32F 5 0% 0.00 in 0% 0 mhos 11 Yes - - -
04/26/2015 12:57 Wet 55.2F 56F 32F 5 0% 0.00 in 0% 0 mhos 20 Yes - - -
04/26/2015 12:47 Wet 55.0F 56F 32F 5 0% 0.00 in 0% 0 mhos 21 Yes - - -
04/26/2015 12:47 Wet 55.0F 56F 32F 5 0% 0.00 in 0% 0 mhos 21 Yes - - -
04/26/2015 12:37 Wet 55.0F 56F 32F 5 0% 0.00 in 0% 0 mhos 14 Yes - - -
04/26/2015 12:31 Wet 56.1F 56F 32F 5 0% 0.00 in 0% 0 mhos 25 Yes - - -
04/26/2015 12:26 Wet 55.4F 56F 32F 5 0% 0.00 in 0% 0 mhos 24 Yes - - -
04/26/2015 12:16 Wet 55.4F 56F 32F 5 0% 0.00 in 0% 0 mhos 23 Yes - - -
04/26/2015 12:16 Wet 56.3F 56F 32F 5 0% 0.00 in 0% 0 mhos 25 Yes - - -
04/26/2015 12:06 Wet 54.9F 56F 32F 5 0% 0.00 in 0% 0 mhos 21 Yes - - -
04/26/2015 12:01 Wet 55.2F 56F 32F 5 0% 0.00 in 0% 0 mhos 21 Yes - - -
04/26/2015 11:56 Wet 54.9F 56F 32F 5 0% 0.00 in 0% 0 mhos 14 Yes - - -
04/26/2015 11:46 Wet 54.1F 56F 32F 5 0% 0.00 in 0% 0 mhos 19 Yes - - -
Date/Time
(MDT)
Sf
Temp Chem Water Layer Surface Precipitation
Sf Sub Frz Factor Pct Depth IcePct Cond Salin Type Intens Accum Rate
04/26/2015 11:46 Wet 54.1F 56F 32F 5 0% 0.00 in 0% 0 mhos 19 Yes - - -
04/26/2015 11:36 Wet 52.9F 56F 32F 5 0% 0.00 in 0% 0 mhos 11 Yes - - -
04/26/2015 11:31 Wet 53.1F 56F 32F 5 0% 0.00 in 0% 0 mhos 16 Yes - - -
04/26/2015 11:26 Wet 52.2F 56F 32F 5 0% 0.00 in 0% 0 mhos 6 Yes - - -
04/26/2015 11:16 Wet 52.7F 56F 32F 50 0% 0.00 in 0% 0 mhos 16 Yes - - -
04/26/2015 11:16 Wet 52.7F 56F 32F 50 0% 0.00 in 0% 0 mhos 16 Yes - - -
04/26/2015 11:06 Wet 52.0F 56F 32F 70 0% 0.00 in 0% 0 mhos 16 Yes - - -
04/26/2015 11:01 Wet 51.1F 56F 32F 45 0% 0.00 in 0% 0 mhos 16 Yes - - -
04/26/2015 10:56 Wet 50.4F 56F 32F 35 0% 0.00 in 0% 0 mhos 16 Yes - - -
04/26/2015 10:46 Wet 50.0F 56F 32F 5 0% 0.00 in 0% 0 mhos 16 Yes - - -
04/26/2015 10:46 Wet 50.0F 56F 32F 5 0% 0.00 in 0% 0 mhos 16 Yes - - -
04/26/2015 10:36 Wet 48.9F 56F 32F 30 0% 0.00 in 0% 0 mhos 19 Yes - - -
04/26/2015 10:31 Wet 48.9F 56F 32F 5 0% 0.00 in 0% 0 mhos 19 Yes - - -
04/26/2015 10:26 Wet 48.2F 56F 32F 5 0% 0.00 in 0% 0 mhos 19 Yes - - -
04/26/2015 10:16 Wet 47.7F 56F 32F 5 0% 0.00 in 0% 0 mhos 7 Yes - - -
Date/Time
(MDT)
Sf
Temp Chem Water Layer Surface Precipitation
Sf Sub Frz Factor Pct Depth IcePct Cond Salin Type Intens Accum Rate
04/26/2015 10:16 Wet 47.7F 56F 32F 5 0% 0.00 in 0% 0 mhos 7 Yes - - -
04/26/2015 10:06 Wet 47.3F 56F 32F 20 0% 0.00 in 0% 0 mhos 20 Yes - - -
04/26/2015 10:01 Wet 46.9F 56F 32F 10 0% 0.00 in 0% 0 mhos 20 Yes - - -
04/26/2015 09:56 Wet 46.4F 56F 32F 5 0% 0.00 in 0% 0 mhos 20 Yes - - -
04/26/2015 09:46 Wet 46.6F 57F 32F 5 0% 0.00 in 0% 0 mhos 20 Yes - - -
04/26/2015 09:46 Wet 46.6F 57F 32F 5 0% 0.00 in 0% 0 mhos 20 Yes - - -
04/26/2015 09:36 Wet 46.9F 57F 32F 5 0% 0.00 in 0% 0 mhos 19 Yes - - -
04/26/2015 09:31 Wet 46.4F 57F 32F 5 0% 0.00 in 0% 0 mhos 6 Yes - - -
04/26/2015 09:26 Wet 46.4F 57F 32F 5 0% 0.00 in 0% 0 mhos 19 Yes - - -
04/26/2015 09:16 Wet 45.5F 57F 32F 5 0% 0.00 in 0% 0 mhos 14 Yes - - -
04/26/2015 09:16 Wet 45.5F 57F 32F 5 0% 0.00 in 0% 0 mhos 14 Yes - - -
04/26/2015 09:06 Wet 45.5F 57F 32F 70 0% 0.00 in 0% 0 mhos 22 Yes - - -
04/26/2015 09:01 Wet 45.5F 57F 32F 10 0% 0.00 in 0% 0 mhos 21 Yes - - -
04/26/2015 08:56 Wet 45.1F 57F 32F 15 0% 0.00 in 0% 0 mhos 21 Yes - - -
04/26/2015 08:46 Wet 46.0F 57F 32F 5 0% 0.00 in 0% 0 mhos 29 Yes - - -
Date/Time
(MDT)
Sf
Temp Chem Water Layer Surface Precipitation
Sf Sub Frz Factor Pct Depth IcePct Cond Salin Type Intens Accum Rate
04/26/2015 08:46 Wet 46.0F 57F 32F 5 0% 0.00 in 0% 0 mhos 29 Yes - - -
04/26/2015 08:36 Wet 45.1F 57F 32F 5 0% 0.00 in 0% 0 mhos 21 Yes - - -
04/26/2015 08:31 Wet 45.7F 57F 32F 5 0% 0.00 in 0% 0 mhos 26 Yes - - -
04/26/2015 08:25 Wet 45.3F 57F 32F 5 0% 0.00 in 0% 0 mhos 22 Yes - - -
04/26/2015 08:16 Wet 45.7F 57F 32F 15 0% 0.00 in 0% 0 mhos 32 Yes - - -
04/26/2015 08:15 Wet 45.9F 57F 32F 10 0% 0.00 in 0% 0 mhos 34 Yes - - -
04/26/2015 08:05 Wet 45.0F 57F 32F 5 0% 0.00 in 0% 0 mhos 21 Yes - - -
04/26/2015 08:01 Wet 45.1F 57F 32F 5 0% 0.00 in 0% 0 mhos 14 Yes - - -
04/26/2015 07:55 Wet 45.0F 57F 32F 10 0% 0.00 in 0% 0 mhos 21 Yes - - -
04/26/2015 07:46 Wet 45.5F 58F 32F 95 0% 0.00 in 0% 0 mhos 33 Yes - - -
04/26/2015 07:45 Wet 45.5F 58F 32F 95 0% 0.00 in 0% 0 mhos 33 Yes - - -
04/26/2015 07:35 Wet 45.0F 58F 32F 95 0% 0.00 in 0% 0 mhos 39 Yes - - -
04/26/2015 07:31 Wet 45.0F 58F 32F 95 0% 0.00 in 0% 0 mhos 40 Yes - - -
04/26/2015 07:25 Wet 45.0F 58F 32F 95 0% 0.00 in 0% 0 mhos 41 Yes - - -
04/26/2015 07:16 Wet 45.1F 58F 32F 95 0% 0.00 in 0% 1 mhos 50 Yes - - -
Date/Time
(MDT)
Sf
Temp Chem Water Layer Surface Precipitation
Sf Sub Frz Factor Pct Depth IcePct Cond Salin Type Intens Accum Rate
04/26/2015 07:15 Wet 45.3F 58F 32F 95 0% 0.00 in 0% 1 mhos 51 Yes - - -
04/26/2015 07:05 Wet 45.7F 58F 32F 95 0% 0.00 in 0% 1 mhos 45 Yes - - -
04/26/2015 07:01 Wet 45.5F 58F 32F 95 0% 0.00 in 0% 1 mhos 50 Yes - - -
04/26/2015 06:55 Wet 45.5F 58F 32F 75 0% 0.00 in 0% 1 mhos 50 Yes - - -
04/26/2015 06:46 Wet 45.5F 58F 32F 35 0% 0.00 in 0% 0 mhos 43 Yes - - -
04/26/2015 06:45 Wet 45.7F 58F 32F 30 0% 0.00 in 0% 0 mhos 43 Yes - - -
04/26/2015 06:35 Wet 45.7F 58F 32F 15 0% 0.00 in 0% 1 mhos 47 Yes - - -
04/26/2015 06:31 Wet 45.9F 58F 32F 95 0% 0.00 in 0% 1 mhos 95 Yes - - -
04/26/2015 06:25 Wet 46.0F 58F 32F 95 0% 0.00 in 0% 1 mhos 100 Yes - - -
04/26/2015 06:16 Wet 46.0F 58F 32F 95 0% 0.00 in 0% 1 mhos 103 Yes - - -
04/26/2015 06:15 Wet 46.0F 58F 32F 95 0% 0.00 in 0% 1 mhos 102 Yes - - -
04/26/2015 06:05 Wet 46.0F 58F 32F 70 0% 0.00 in 0% 1 mhos 109 Yes - - -
04/26/2015 06:01 Wet 46.4F 58F 32F 95 0% 0.00 in 0% 1 mhos 129 Yes - - -
04/26/2015 05:55 Wet 46.4F 58F 32F 95 1% 0.00 in 0% 4 mhos 342 Yes - - -
04/26/2015 05:46 Wet 46.4F 58F 32F 95 1% 0.00 in 0% 4 mhos 351 Yes - - -
Date/Time
(MDT)
Sf
Temp Chem Water Layer Surface Precipitation
Sf Sub Frz Factor Pct Depth IcePct Cond Salin Type Intens Accum Rate
04/26/2015 05:45 Wet 46.6F 58F 32F 95 1% 0.00 in 0% 4 mhos 363 Yes - - -
04/26/2015 05:35 Wet 46.8F 58F 32F 95 1% 0.00 in 0% 4 mhos 382 Yes - - -
04/26/2015 05:31 Wet 46.8F 58F 32F 95 1% 0.00 in 0% 4 mhos 390 Yes - - -
04/26/2015 05:25 Wet 46.9F 58F 32F 95 2% 0.00 in 0% 5 mhos 399 Yes - - -
04/26/2015 05:16 Wet 47.1F 58F 32F 95 2% 0.00 in 0% 5 mhos 408 Yes - - -
04/26/2015 05:15 Wet 47.1F 58F 32F 95 2% 0.00 in 0% 5 mhos 408 Yes - - -
04/26/2015 05:05 Wet 47.1F 58F 32F 95 2% 0.00 in 0% 5 mhos 416 Yes - - -
04/26/2015 05:01 Wet 47.1F 58F 31F 95 2% 0.00 in 0% 5 mhos 422 Yes - - -
04/26/2015 04:55 Wet 47.3F 58F 31F 95 2% 0.00 in 0% 5 mhos 429 Yes - - -
04/26/2015 04:46 Wet 47.3F 59F 31F 60 2% 0.00 in 0% 5 mhos 432 Yes - - -
04/26/2015 04:45 Wet 47.3F 58F 31F 50 2% 0.00 in 0% 5 mhos 427 Yes - - -
04/26/2015 04:35 Wet 47.5F 59F 32F 55 0% 0.00 in 0% 1 mhos 65 Yes - - -
04/26/2015 04:31 Wet 47.5F 59F 32F 25 0% 0.00 in 0% 1 mhos 50 Yes - - -
04/26/2015 04:25 Wet 47.7F 59F 32F 15 0% 0.00 in 0% 0 mhos 10 Yes - - -
04/26/2015 04:16 Wet 47.8F 59F 32F 5 0% 0.00 in 0% 0 mhos 3 Yes - - -
Date/Time
(MDT)
Sf
Temp Chem Water Layer Surface Precipitation
Sf Sub Frz Factor Pct Depth IcePct Cond Salin Type Intens Accum Rate
04/26/2015 04:15 Wet 47.7F 59F 32F 5 0% 0.00 in 0% 0 mhos 3 Yes - - -
04/26/2015 04:05 Wet 47.7F 59F 32F 10 0% 0.10 in 0% 0 mhos 3 Yes - - -
04/26/2015 04:01 Wet 48.0F 59F 32F 5 0% 0.10 in 0% 0 mhos 3 Yes - - -
04/26/2015 03:55 Wet 48.0F 59F 32F 10 0% 0.10 in 0% 0 mhos 3 Yes - - -
04/26/2015 03:46 Wet 48.4F 59F 32F 10 0% 0.10 in 0% 0 mhos 3 Yes - - -
04/26/2015 03:45 Wet 48.4F 59F 32F 10 0% 0.10 in 0% 0 mhos 3 Yes - - -
04/26/2015 03:35 Wet 48.7F 59F 32F 5 0% 0.00 in 0% 0 mhos 2 Yes - - -
04/26/2015 03:31 Wet 48.9F 59F 32F 5 0% 0.10 in 0% 0 mhos 2 Yes - - -
04/26/2015 03:25 Wet 49.1F 59F 32F 5 0% 0.00 in 0% 0 mhos 2 Yes - - -
04/26/2015 03:16 Dry 50.2F 59F - - - - - 0 mhos 0 None None - -
04/26/2015 03:15 Dry 50.4F 59F - - - - - 0 mhos 0 None None - -
04/26/2015 03:05 Dry 50.2F 59F - - - - - 0 mhos 0 None None - -
04/26/2015 03:01 Dry 50.2F 59F - - - - - 0 mhos 0 None None - -
04/26/2015 02:54 Dry 50.2F 59F - - - - - 0 mhos 0 None None - -
04/26/2015 02:46 Dry 50.5F 59F - - - - - 0 mhos 0 None None - -
Date/Time
(MDT)
Sf
Temp Chem Water Layer Surface Precipitation
Sf Sub Frz Factor Pct Depth IcePct Cond Salin Type Intens Accum Rate
04/26/2015 02:44 Dry 50.5F 59F - - - - - 0 mhos 0 None None - -
04/26/2015 02:34 Dry 50.7F 59F - - - - - 0 mhos 0 None None - -
04/26/2015 02:31 Dry 50.7F 59F - - - - - 0 mhos 0 None None - -
04/26/2015 02:24 Dry 50.7F 59F - - - - - 0 mhos 0 None None - -
04/26/2015 02:16 Dry 51.1F 59F - - - - - 0 mhos 0 None None - -
04/26/2015 02:14 Dry 51.1F 59F - - - - - 0 mhos 0 None None - -
04/26/2015 02:04 Dry 51.1F 59F - - - - - 0 mhos 0 None None - -
04/26/2015 02:01 Dry 51.1F 59F - - - - - 0 mhos 0 None None - -
04/26/2015 01:54 Dry 51.1F 59F - - - - - 0 mhos 0 None None - -
04/26/2015 01:46 Dry 50.9F 59F - - - - - 0 mhos 0 None None - -
04/26/2015 01:44 Dry 51.3F 59F - - - - - 0 mhos 0 None None - -
04/26/2015 01:34 Dry 51.1F 60F - - - - - 0 mhos 0 None None - -
04/26/2015 01:31 Dry 51.3F 60F - - - - - 0 mhos 0 None None - -
04/26/2015 01:24 Dry 51.1F 60F - - - - - 0 mhos 0 None None - -
04/26/2015 01:16 Dry 51.1F 60F - - - - - 0 mhos 0 None None - -
Date/Time
(MDT)
Sf
Temp Chem Water Layer Surface Precipitation
Sf Sub Frz Factor Pct Depth IcePct Cond Salin Type Intens Accum Rate
04/26/2015 01:14 Dry 51.3F 60F - - - - - 0 mhos 0 None None - -
04/26/2015 01:04 Dry 51.3F 60F - - - - - 0 mhos 0 None None - -
04/26/2015 01:01 Dry 51.3F 60F - - - - - 0 mhos 0 None None - -
04/26/2015 00:54 Dry 51.4F 60F - - - - - 0 mhos 0 None None - -
04/26/2015 00:46 Dry 51.4F 60F - - - - - 0 mhos 0 None None - -
04/26/2015 00:44 Dry 51.4F 60F - - - - - 0 mhos 0 None None - -
04/26/2015 00:34 Dry 51.8F 60F - - - - - 0 mhos 0 None None - -
04/26/2015 00:31 Dry 51.8F 60F - - - - - 0 mhos 0 None None - -
04/26/2015 00:24 Dry 52.2F 60F - - - - - 0 mhos 0 None None - -
04/26/2015 00:16 Dry 52.5F 60F - - - - - 0 mhos 0 None None - -
04/26/2015 00:14 Dry 52.7F 60F - - - - - 0 mhos 0 None None - -
04/26/2015 00:04 Dry 53.2F 60F - - - - - 0 mhos 0 None None - -
04/25/2015 23:54 Dry 53.4F 60F - - - - - 0 mhos 0 None None - -
04/25/2015 23:46 Dry 53.6F 60F - - - - - 0 mhos 0 None None - -
04/25/2015 23:44 Dry 53.8F 60F - - - - - 0 mhos 0 None None - -
Date/Time
(MDT)
Sf
Temp Chem Water Layer Surface Precipitation
Sf Sub Frz Factor Pct Depth IcePct Cond Salin Type Intens Accum Rate
04/25/2015 23:34 Dry 53.8F 60F - - - - - 0 mhos 0 None None - -
04/25/2015 23:31 Dry 53.8F 60F - - - - - 0 mhos 0 None None - -
04/25/2015 23:23 Dry 53.8F 60F - - - - - 0 mhos 0 None None - -
04/25/2015 23:16 Dry 54.0F 60F - - - - - 0 mhos 0 None None - -
04/25/2015 23:13 Dry 54.0F 60F - - - - - 0 mhos 0 None None - -
04/25/2015 23:03 Dry 54.3F 60F - - - - - 0 mhos 0 None None - -
04/25/2015 23:01 Dry 54.5F 60F - - - - - 0 mhos 0 None None - -
04/25/2015 22:53 Dry 54.7F 60F - - - - - 0 mhos 0 None None - -
04/25/2015 22:46 Dry 54.9F 60F - - - - - 0 mhos 0 None None - -
04/25/2015 22:43 Dry 55.0F 60F - - - - - 0 mhos 0 None None - -
04/25/2015 22:33 Dry 55.0F 60F - - - - - 0 mhos 0 None None - -
04/25/2015 22:31 Dry 55.0F 60F - - - - - 0 mhos 0 None None - -
04/25/2015 22:23 Dry 55.2F 60F - - - - - 0 mhos 0 None None - -
04/25/2015 22:16 Dry 55.2F 60F - - - - - 0 mhos 0 None None - -
04/25/2015 22:13 Dry 55.4F 60F - - - - - 0 mhos 0 None None - -
Date/Time
(MDT)
Sf
Temp Chem Water Layer Surface Precipitation
Sf Sub Frz Factor Pct Depth IcePct Cond Salin Type Intens Accum Rate
04/25/2015 22:03 Dry 55.6F 60F - - - - - 0 mhos 0 None None - -
04/25/2015 22:01 Dry 55.6F 60F - - - - - 0 mhos 0 None None - -
04/25/2015 21:53 Dry 56.1F 60F - - - - - 0 mhos 0 None None - -
04/25/2015 21:46 Dry 56.1F 60F - - - - - 0 mhos 0 None None - -
04/25/2015 21:43 Dry 56.3F 60F - - - - - 0 mhos 0 None None - -
04/25/2015 21:33 Dry 56.7F 60F - - - - - 0 mhos 0 None None - -
04/25/2015 21:31 Dry 56.7F 60F - - - - - 0 mhos 0 None None - -
04/25/2015 21:23 Dry 56.8F 60F - - - - - 0 mhos 0 None None - -
04/25/2015 21:16 Dry 56.7F 60F - - - - - 0 mhos 0 None None - -
04/25/2015 21:13 Dry 56.5F 60F - - - - - 0 mhos 0 None None - -
04/25/2015 21:03 Dry 57.2F 59F - - - - - 0 mhos 0 None None - -
04/25/2015 21:01 Dry 57.4F 59F - - - - - 0 mhos 0 None None - -
04/25/2015 20:53 Dry 57.9F 59F - - - - - 0 mhos 0 None None - -
04/25/2015 20:46 Dry 58.8F 59F - - - - - 0 mhos 0 None None - -
04/25/2015 20:43 Dry 59.4F 59F - - - - - 0 mhos 0 None None - -
Date/Time
(MDT)
Sf
Temp Chem Water Layer Surface Precipitation
Sf Sub Frz Factor Pct Depth IcePct Cond Salin Type Intens Accum Rate
04/25/2015 20:33 Dry 60.6F 59F - - - - - 0 mhos 0 None None - -
04/25/2015 20:31 Dry 60.8F 59F - - - - - 0 mhos 0 None None - -
04/25/2015 20:23 Dry 61.5F 59F - - - - - 0 mhos 0 None None - -
04/25/2015 20:16 Dry 62.2F 59F - - - - - 0 mhos 0 None None - -
04/25/2015 20:13 Dry 62.6F 59F - - - - - 0 mhos 0 None None - -
04/25/2015 20:03 Dry 63.1F 59F - - - - - 0 mhos 0 None None - -
04/25/2015 20:01 Dry 63.3F 59F - - - - - 0 mhos 0 None None - -
04/25/2015 19:53 Dry 64.2F 59F - - - - - 0 mhos 0 None None - -
04/25/2015 19:46 Dry 64.9F 59F - - - - - 0 mhos 0 None None - -
04/25/2015 19:43 Dry 65.3F 59F - - - - - 0 mhos 0 None None - -
04/25/2015 19:33 Dry 65.8F 59F - - - - - 0 mhos 0 None None - -
04/25/2015 19:31 Dry 65.3F 59F - - - - - 0 mhos 0 None None - -
04/25/2015 19:22 Dry 66.4F 59F - - - - - 0 mhos 0 None None - -
04/25/2015 19:16 Dry 66.9F 58F - - - - - 0 mhos 0 None None - -
04/25/2015 19:12 Dry 67.6F 58F - - - - - 0 mhos 0 None None - -
Date/Time
(MDT)
Sf
Temp Chem Water Layer Surface Precipitation
Sf Sub Frz Factor Pct Depth IcePct Cond Salin Type Intens Accum Rate
04/25/2015 19:02 Dry 69.6F 58F - - - - - 0 mhos 0 None None - -
04/25/2015 19:01 Dry 70.2F 58F - - - - - 0 mhos 0 None None - -
04/25/2015 18:52 Dry 72.1F 58F - - - - - 0 mhos 0 None None - -
04/25/2015 18:46 Dry 75.2F 58F - - - - - 0 mhos 0 None None - -
04/25/2015 18:42 Dry 76.8F 58F - - - - - 0 mhos 0 None None - -
04/25/2015 18:32 Dry 77.5F 58F - - - - - 0 mhos 0 None None - -
04/25/2015 18:31 Dry 77.9F 58F - - - - - 0 mhos 0 None None - -
04/25/2015 18:22 Dry 77.7F 58F - - - - - 0 mhos 0 None None - -
04/25/2015 18:16 Dry 78.3F 58F - - - - - 0 mhos 0 None None - -
04/25/2015 18:12 Dry 80.2F 58F - - - - - 0 mhos 0 None None - -
04/25/2015 18:02 Dry 81.1F 58F - - - - - 0 mhos 0 None None - -
04/25/2015 18:01 Dry 80.6F 58F - - - - - 0 mhos 0 None None - -
04/25/2015 17:52 Dry 81.3F 58F - - - - - 0 mhos 0 None None - -
04/25/2015 17:46 Dry 80.4F 57F - - - - - 0 mhos 0 None None - -
04/25/2015 17:42 Dry 81.7F 57F - - - - - 0 mhos 0 None None - -
Date/Time
(MDT)
Sf
Temp Chem Water Layer Surface Precipitation
Sf Sub Frz Factor Pct Depth IcePct Cond Salin Type Intens Accum Rate
04/25/2015 17:32 Dry 83.1F 57F - - - - - 0 mhos 0 None None - -
04/25/2015 17:31 Dry 82.4F 57F - - - - - 0 mhos 0 None None - -
04/25/2015 17:22 Dry 84.0F 57F - - - - - 0 mhos 0 None None - -
04/25/2015 17:16 Dry 82.2F 57F - - - - - 0 mhos 0 None None - -
04/25/2015 17:12 Dry 82.8F 57F - - - - - 0 mhos 0 None None - -
04/25/2015 17:02 Dry 82.8F 57F - - - - - 0 mhos 0 None None - -
04/25/2015 17:01 Dry 82.9F 57F - - - - - 0 mhos 0 None None - -
04/25/2015 16:52 Dry 85.6F 57F - - - - - 0 mhos 0 None None - -
04/25/2015 16:46 Dry 89.1F 56F - - - - - 0 mhos 0 None None - -
04/25/2015 16:42 Dry 91.0F 56F - - - - - 0 mhos 0 None None - -
04/25/2015 16:32 Dry 90.3F 56F - - - - - 0 mhos 0 None None - -
04/25/2015 16:31 Dry 89.6F 56F - - - - - 0 mhos 0 None None - -
04/25/2015 16:22 Dry 93.4F 56F - - - - - 0 mhos 0 None None - -
04/25/2015 16:16 Dry 90.7F 56F - - - - - 0 mhos 0 None None - -
04/25/2015 16:12 Dry 90.9F 56F - - - - - 0 mhos 0 None None - -
Date/Time
(MDT)
Sf
Temp Chem Water Layer Surface Precipitation
Sf Sub Frz Factor Pct Depth IcePct Cond Salin Type Intens Accum Rate
04/25/2015 16:02 Dry 87.4F 56F - - - - - 0 mhos 0 None None - -
04/25/2015 16:01 Dry 87.4F 56F - - - - - 0 mhos 0 None None - -
04/25/2015 15:52 Dry 88.5F 56F - - - - - 0 mhos 0 None None - -
04/25/2015 15:46 Dry 90.9F 56F - - - - - 0 mhos 0 None None - -
04/25/2015 15:42 Dry 89.4F 56F - - - - - 0 mhos 0 None None - -
04/25/2015 15:32 Dry 85.6F 56F - - - - - 0 mhos 0 None None - -
04/25/2015 15:31 Dry 86.5F 56F - - - - - 0 mhos 0 None None - -
04/25/2015 15:22 Dry 93.4F 56F - - - - - 0 mhos 0 None None - -
04/25/2015 15:16 Dry 93.0F 56F - - - - - 0 mhos 0 None None - -
04/25/2015 15:11 Dry 93.7F 55F - - - - - 0 mhos 0 None None - -
04/25/2015 15:01 Dry 87.6F 55F - - - - - 0 mhos 0 None None - -
04/25/2015 15:01 Dry 88.0F 55F - - - - - 0 mhos 0 None None - -
Change End Date:
Copyright © 1998-2005 Surface Systems, Inc.
All Rights Reserved
Send comments about the data to:
SCAN Web ® is a registered trademark of Surface Systems, Inc.
SCAN Web Version 5.6